TimeCST,TemperatureF,Dew PointF,Humidity,Sea Level PressureIn,VisibilityMPH,Wind Direction,Wind SpeedMPH,Gust SpeedMPH,PrecipitationIn,Events,Conditions,WindDirDegrees,DateUTC
12:05 AM,51.8,48.2,88,29.98,6.0,SSE,4.6,-,N/A,,Overcast,150,2012-12-01 06:05:00
12:53 AM,52.0,50.0,93,29.96,6.0,Calm,Calm,-,N/A,,Overcast,0,2012-12-01 06:53:00
1:27 AM,53.6,51.8,94,29.96,6.0,SSE,8.1,-,N/A,,Overcast,160,2012-12-01 07:27:00
2:24 AM,55.4,53.6,94,29.95,2.5,South,6.9,-,N/A,,Overcast,180,2012-12-01 08:24:00
2:51 AM,55.4,53.6,94,29.95,3.0,SSE,6.9,-,N/A,,Overcast,160,2012-12-01 08:51:00
2:53 AM,55.0,54.0,96,29.94,3.0,SSE,6.9,-,N/A,,Overcast,160,2012-12-01 08:53:00
3:26 AM,55.4,53.6,94,29.93,4.0,SE,5.8,-,N/A,,Overcast,140,2012-12-01 09:26:00
4:51 AM,55.4,53.6,94,29.89,5.0,SE,8.1,-,N/A,,Overcast,130,2012-12-01 10:51:00
4:53 AM,55.9,54.0,93,29.89,5.0,SE,8.1,-,N/A,,Overcast,140,2012-12-01 10:53:00
5:53 AM,57.0,55.0,93,29.87,4.0,SE,11.5,-,N/A,,Overcast,140,2012-12-01 11:53:00
6:06 AM,57.2,55.4,94,29.87,4.0,SE,10.4,-,N/A,,Overcast,140,2012-12-01 12:06:00
7:53 AM,57.9,55.9,93,29.86,4.0,SE,9.2,-,N/A,,Overcast,140,2012-12-01 13:53:00
8:29 AM,59.0,55.4,88,29.86,5.0,SSE,11.5,-,N/A,,Overcast,150,2012-12-01 14:29:00
8:53 AM,60.1,55.9,86,29.86,6.0,SSE,12.7,-,N/A,,Mostly Cloudy,150,2012-12-01 14:53:00
9:53 AM,62.1,57.0,84,29.85,8.0,SSE,10.4,-,N/A,,Mostly Cloudy,160,2012-12-01 15:53:00
10:53 AM,63.0,57.0,81,29.84,10.0,SSE,8.1,-,N/A,,Overcast,160,2012-12-01 16:53:00
11:45 AM,64.4,55.4,73,29.82,10.0,South,17.3,23.0,N/A,,Overcast,180,2012-12-01 17:45:00
12:53 PM,66.9,55.9,68,29.80,10.0,South,13.8,-,N/A,,Overcast,190,2012-12-01 18:53:00
1:53 PM,68.0,55.0,63,29.77,10.0,South,13.8,19.6,N/A,,Scattered Clouds,180,2012-12-01 19:53:00
3:53 PM,66.9,53.1,61,29.77,10.0,SSW,8.1,-,N/A,,Partly Cloudy,210,2012-12-01 21:53:00
4:53 PM,61.0,51.1,70,29.79,10.0,SW,5.8,-,N/A,,Clear,220,2012-12-01 22:53:00
5:53 PM,54.0,48.9,83,29.82,10.0,West,3.5,-,N/A,,Clear,280,2012-12-01 23:53:00
6:53 PM,51.1,48.0,89,29.84,10.0,WSW,5.8,-,N/A,,Clear,250,2012-12-02 00:53:00
7:53 PM,51.1,48.0,89,29.86,10.0,West,5.8,-,N/A,,Clear,270,2012-12-02 01:53:00
8:53 PM,48.9,46.0,90,29.86,10.0,West,5.8,-,N/A,,Clear,260,2012-12-02 02:53:00
9:53 PM,46.0,44.1,93,29.88,8.0,West,4.6,-,N/A,,Clear,270,2012-12-02 03:53:00
10:53 PM,45.0,43.0,93,29.89,6.0,SW,4.6,-,N/A,,Clear,220,2012-12-02 04:53:00
11:53 PM,44.1,43.0,96,29.91,5.0,WSW,5.8,-,N/A,,Clear,250,2012-12-02 05:53:00